RUM3122 SBSP-SBRJ

Flight info

Callsign RUM3122
Flight time 0h 48m
Altitude 25000
Route BAIAN3A NIBRU UZ171 KEVUN ASALU1A
Aircraft A319/M-SDE3FGHIRWY/LB1

Departure

Time 2026-04-30 19:26
Airport Congonhas–Deputado Freitas Nobre Airport (SBSP)

Arrival

Time 2026-04-30 20:14
Airport Santos Dumont Airport (SBRJ)
Time Latitude Longitude Altitude Speed Heading
2026-04-30 19:18 -23.62715 -46.65769 2601 ft 0 kts 327°
2026-04-30 19:20 -23.62678 -46.65781 2601 ft 9 kts 348°
2026-04-30 19:21 -23.62615 -46.65794 2602 ft 10 kts 346°
2026-04-30 19:21 -23.62490 -46.65878 2601 ft 12 kts 327°
2026-04-30 19:22 -23.62344 -46.65979 2600 ft 13 kts 322°
2026-04-30 19:22 -23.62118 -46.66124 2589 ft 0 kts 329°
2026-04-30 19:24 -23.62072 -46.66140 2589 ft 10 kts
2026-04-30 19:25 -23.62051 -46.66075 2591 ft 0 kts 143°
2026-04-30 19:26 -23.62627 -46.65672 2605 ft 117 kts 147°
2026-04-30 19:26 -23.64239 -46.64471 3669 ft 149 kts 143°
2026-04-30 19:26 -23.64921 -46.63563 4348 ft 160 kts 124°
2026-04-30 19:27 -23.66112 -46.61179 5030 ft 200 kts 120°
2026-04-30 19:27 -23.67557 -46.58206 5637 ft 250 kts 121°
2026-04-30 19:28 -23.68444 -46.56471 6051 ft 274 kts 122°
2026-04-30 19:28 -23.70398 -46.52710 7434 ft 294 kts 121°
2026-04-30 19:29 -23.71824 -46.48442 8928 ft 306 kts 93°
2026-04-30 19:29 -23.71666 -46.46136 9845 ft 306 kts 80°
2026-04-30 19:30 -23.70595 -46.38781 11213 ft 347 kts 81°
2026-04-30 19:30 -23.69838 -46.33490 12499 ft 355 kts 81°
2026-04-30 19:31 -23.69069 -46.28101 13721 ft 363 kts 82°
2026-04-30 19:31 -23.68682 -46.25367 14287 ft 366 kts 82°
2026-04-30 19:31 -23.67893 -46.19814 15273 ft 374 kts 81°
2026-04-30 19:32 -23.67489 -46.17007 15824 ft 376 kts 81°
2026-04-30 19:32 -23.67081 -46.14171 16304 ft 381 kts 81°
2026-04-30 19:32 -23.66667 -46.11307 16857 ft 383 kts 81°
2026-04-30 19:32 -23.66251 -46.08426 17377 ft 386 kts 81°
2026-04-30 19:33 -23.65833 -46.05513 17880 ft 390 kts 81°
2026-04-30 19:33 -23.65415 -46.02584 18426 ft 393 kts 81°
2026-04-30 19:33 -23.64996 -45.99662 18859 ft 396 kts 81°
2026-04-30 19:33 -23.64566 -45.96679 19291 ft 400 kts 81°
2026-04-30 19:34 -23.64274 -45.94656 19600 ft 402 kts 81°
2026-04-30 19:34 -23.63695 -45.90643 20177 ft 407 kts 81°
2026-04-30 19:34 -23.62802 -45.84495 21014 ft 415 kts 80°
2026-04-30 19:35 -23.62348 -45.81374 21430 ft 419 kts 80°
2026-04-30 19:35 -23.62040 -45.79249 21708 ft 421 kts 80°
2026-04-30 19:35 -23.61431 -45.75050 22241 ft 426 kts 80°
2026-04-30 19:35 -23.60966 -45.71840 22641 ft 430 kts 80°
2026-04-30 19:36 -23.60656 -45.69702 22910 ft 433 kts 80°
2026-04-30 19:36 -23.60182 -45.66448 23314 ft 437 kts 80°
2026-04-30 19:36 -23.59214 -45.59855 24038 ft 444 kts 80°
2026-04-30 19:37 -23.58724 -45.56523 24386 ft 446 kts 80°
2026-04-30 19:37 -23.58229 -45.53174 24741 ft 449 kts 80°
2026-04-30 19:37 -23.57731 -45.49812 25009 ft 451 kts 80°
2026-04-30 19:37 -23.57227 -45.46450 25081 ft 444 kts 79°
2026-04-30 19:38 -23.56653 -45.43198 25093 ft 430 kts 77°
2026-04-30 19:38 -23.56012 -45.40066 25095 ft 418 kts 75°
2026-04-30 19:38 -23.55330 -45.37006 25092 ft 414 kts 75°
2026-04-30 19:38 -23.54633 -45.33970 25095 ft 412 kts 75°
2026-04-30 19:39 -23.53943 -45.30938 25093 ft 412 kts 75°
2026-04-30 19:39 -23.53272 -45.27904 25099 ft 412 kts 75°
2026-04-30 19:39 -23.52615 -45.24864 25098 ft 412 kts 75°
2026-04-30 19:39 -23.51973 -45.21825 25097 ft 412 kts 76°
2026-04-30 19:40 -23.51335 -45.18784 25092 ft 412 kts 76°
2026-04-30 19:40 -23.50697 -45.15741 25103 ft 413 kts 76°
2026-04-30 19:40 -23.50051 -45.12689 25103 ft 413 kts 76°
2026-04-30 19:40 -23.49403 -45.09641 25102 ft 413 kts 76°
2026-04-30 19:41 -23.48755 -45.06595 25097 ft 413 kts 76°
2026-04-30 19:41 -23.48100 -45.03548 25095 ft 413 kts 76°
2026-04-30 19:41 -23.47442 -45.00501 25093 ft 413 kts 75°
2026-04-30 19:41 -23.46781 -44.97445 25095 ft 420 kts 76°
2026-04-30 19:42 -23.46103 -44.94296 25090 ft 434 kts 75°
2026-04-30 19:42 -23.45398 -44.91055 25092 ft 444 kts 75°
2026-04-30 19:42 -23.44675 -44.87776 25093 ft 447 kts 75°
2026-04-30 19:42 -23.43943 -44.84485 25089 ft 448 kts 75°
2026-04-30 19:43 -23.43206 -44.81189 25091 ft 448 kts 75°
2026-04-30 19:43 -23.42466 -44.77892 25093 ft 449 kts 75°
2026-04-30 19:43 -23.41726 -44.74596 25089 ft 449 kts 75°
2026-04-30 19:44 -23.40253 -44.67985 25086 ft 449 kts 75°
2026-04-30 19:44 -23.39518 -44.64680 25084 ft 449 kts 75°
2026-04-30 19:44 -23.38781 -44.61383 25084 ft 449 kts 75°
2026-04-30 19:44 -23.38037 -44.58078 25080 ft 449 kts 75°
2026-04-30 19:45 -23.37293 -44.54775 25080 ft 449 kts 75°
2026-04-30 19:45 -23.36561 -44.51516 25074 ft 449 kts 75°
2026-04-30 19:45 -23.35809 -44.48169 25077 ft 449 kts 75°
2026-04-30 19:45 -23.35078 -44.44910 25072 ft 450 kts 75°
2026-04-30 19:46 -23.34209 -44.41647 25066 ft 448 kts 66°
2026-04-30 19:46 -23.32923 -44.38570 25069 ft 447 kts 63°
2026-04-30 19:46 -23.31606 -44.35503 25067 ft 447 kts 63°
2026-04-30 19:46 -23.30284 -44.32442 25067 ft 447 kts 63°
2026-04-30 19:47 -23.28961 -44.29386 25049 ft 442 kts 63°
2026-04-30 19:47 -23.28086 -44.27357 24906 ft 437 kts 63°
2026-04-30 19:47 -23.26391 -44.23422 24486 ft 431 kts 63°
2026-04-30 19:47 -23.25129 -44.20489 24132 ft 427 kts 63°
2026-04-30 19:48 -23.23874 -44.17578 23750 ft 423 kts 63°
2026-04-30 19:48 -23.22632 -44.14691 23308 ft 420 kts 63°
2026-04-30 19:48 -23.21397 -44.11823 22854 ft 417 kts 63°
2026-04-30 19:48 -23.20173 -44.08984 22406 ft 413 kts 63°
2026-04-30 19:49 -23.18948 -44.06180 21839 ft 408 kts 62°
2026-04-30 19:49 -23.16447 -44.00723 20670 ft 399 kts 62°
2026-04-30 19:49 -23.15205 -43.98045 20093 ft 395 kts 62°
2026-04-30 19:50 -23.14016 -43.95377 19542 ft 390 kts 64°
2026-04-30 19:50 -23.12877 -43.92724 19000 ft 385 kts 64°
2026-04-30 19:50 -23.11766 -43.90087 18443 ft 382 kts 64°
2026-04-30 19:50 -23.10671 -43.87472 17830 ft 378 kts 64°
2026-04-30 19:51 -23.09583 -43.84885 17232 ft 374 kts 64°
2026-04-30 19:51 -23.08500 -43.82336 16644 ft 370 kts 64°
2026-04-30 19:51 -23.07423 -43.79818 16085 ft 365 kts 64°
2026-04-30 19:51 -23.06356 -43.77333 15534 ft 361 kts 64°
2026-04-30 19:52 -23.05298 -43.74871 14980 ft 358 kts 64°
2026-04-30 19:52 -23.04250 -43.72441 14452 ft 354 kts 64°
2026-04-30 19:52 -23.03214 -43.70034 13932 ft 350 kts 64°
2026-04-30 19:52 -23.02184 -43.67651 13349 ft 346 kts 64°
2026-04-30 19:53 -23.01158 -43.65302 12792 ft 343 kts 64°
2026-04-30 19:53 -23.00149 -43.63007 12225 ft 339 kts 63°
2026-04-30 19:53 -22.99139 -43.60710 11684 ft 336 kts 63°
2026-04-30 19:53 -22.98136 -43.58433 11152 ft 333 kts 63°
2026-04-30 19:54 -22.97140 -43.56174 10628 ft 330 kts 64°
2026-04-30 19:54 -22.96156 -43.53943 10176 ft 324 kts 64°
2026-04-30 19:54 -22.95204 -43.51785 10030 ft 311 kts 64°
2026-04-30 19:54 -22.94287 -43.49692 9816 ft 306 kts 64°
2026-04-30 19:55 -22.93392 -43.47601 9317 ft 305 kts 65°
2026-04-30 19:55 -22.92513 -43.45516 8771 ft 304 kts 65°
2026-04-30 19:55 -22.91624 -43.43393 7969 ft 313 kts 66°
2026-04-30 19:55 -22.90712 -43.41214 7162 ft 321 kts 65°
2026-04-30 19:56 -22.89777 -43.38993 6354 ft 326 kts 66°
2026-04-30 19:56 -22.88827 -43.36747 5497 ft 330 kts 65°
2026-04-30 19:56 -22.87979 -43.34424 4652 ft 332 kts 71°
2026-04-30 19:56 -22.87295 -43.32023 3781 ft 334 kts 73°
2026-04-30 19:57 -22.86726 -43.29595 2894 ft 332 kts 82°
2026-04-30 19:57 -22.86603 -43.27120 2155 ft 326 kts 88°
2026-04-30 19:57 -22.86594 -43.24688 1409 ft 320 kts 92°
2026-04-30 19:57 -22.86684 -43.22329 1082 ft 303 kts 97°
2026-04-30 19:58 -22.86923 -43.20165 1075 ft 276 kts 95°
2026-04-30 19:58 -22.87020 -43.18145 880 ft 262 kts 94°
2026-04-30 19:58 -22.87090 -43.16237 925 ft 237 kts 97°
2026-04-30 19:58 -22.87347 -43.14631 1455 ft 205 kts 109°
2026-04-30 19:59 -22.87995 -43.13250 1830 ft 207 kts 128°
2026-04-30 19:59 -22.89028 -43.12185 1965 ft 203 kts 145°
2026-04-30 19:59 -22.91702 -43.11184 2202 ft 210 kts 172°
2026-04-30 20:00 -22.93163 -43.10996 2537 ft 212 kts 172°
2026-04-30 20:00 -22.94637 -43.10751 3055 ft 216 kts 169°
2026-04-30 20:00 -22.96123 -43.10426 3683 ft 219 kts 168°
2026-04-30 20:00 -22.97623 -43.10060 4308 ft 223 kts 166°
2026-04-30 20:01 -23.00374 -43.08410 5196 ft 233 kts 140°
2026-04-30 20:01 -23.01562 -43.07215 5292 ft 231 kts 138°
2026-04-30 20:01 -23.02732 -43.06023 5397 ft 230 kts 138°
2026-04-30 20:02 -23.05036 -43.03594 5438 ft 232 kts 136°
2026-04-30 20:02 -23.06138 -43.02312 5136 ft 233 kts 128°
2026-04-30 20:03 -23.07162 -42.99064 4768 ft 231 kts 90°
2026-04-30 20:03 -23.07159 -42.97321 4820 ft 231 kts 88°
2026-04-30 20:03 -23.07087 -42.95578 4931 ft 231 kts 86°
2026-04-30 20:03 -23.06983 -42.93833 5050 ft 232 kts 84°
2026-04-30 20:04 -23.06774 -42.92094 5105 ft 233 kts 81°
2026-04-30 20:04 -23.06481 -42.90363 5094 ft 232 kts 77°
2026-04-30 20:04 -23.06086 -42.88665 5075 ft 232 kts 73°
2026-04-30 20:05 -23.05057 -42.85358 5015 ft 231 kts 67°
2026-04-30 20:05 -23.04443 -42.83741 4992 ft 231 kts 65°
2026-04-30 20:05 -23.03041 -42.80636 4965 ft 228 kts 60°
2026-04-30 20:06 -23.02105 -42.79267 4956 ft 226 kts 36°
2026-04-30 20:06 -23.00705 -42.78560 4951 ft 223 kts
2026-04-30 20:06 -22.99179 -42.78642 4951 ft 220 kts 341°
2026-04-30 20:06 -22.97875 -42.79454 4949 ft 217 kts 315°
2026-04-30 20:07 -22.97056 -42.80808 4948 ft 216 kts 288°
2026-04-30 20:07 -22.96887 -42.82413 4945 ft 217 kts 262°
2026-04-30 20:07 -22.98475 -42.85167 4722 ft 223 kts 225°
2026-04-30 20:08 -22.99356 -42.86537 4594 ft 223 kts 248°
2026-04-30 20:08 -22.99636 -42.88164 4415 ft 219 kts 274°
2026-04-30 20:08 -22.99260 -42.89759 4276 ft 220 kts 298°
2026-04-30 20:08 -22.98400 -42.91126 4112 ft 220 kts 304°
2026-04-30 20:09 -22.97619 -42.92552 3951 ft 220 kts 301°
2026-04-30 20:09 -22.96846 -42.93987 3783 ft 220 kts 301°
2026-04-30 20:09 -22.95652 -42.97004 3455 ft 220 kts 289°
2026-04-30 20:10 -22.94679 -43.00144 3131 ft 220 kts 289°
2026-04-30 20:10 -22.94187 -43.01728 2968 ft 222 kts 289°
2026-04-30 20:10 -22.93682 -43.03316 2802 ft 222 kts 293°
2026-04-30 20:11 -22.91993 -43.06099 2528 ft 222 kts 307°
2026-04-30 20:11 -22.91102 -43.07449 2340 ft 217 kts 306°
2026-04-30 20:11 -22.90248 -43.08747 2179 ft 206 kts 306°
2026-04-30 20:12 -22.88617 -43.11225 1625 ft 196 kts 304°
2026-04-30 20:12 -22.87856 -43.12382 1383 ft 178 kts 303°
2026-04-30 20:12 -22.87181 -43.13435 1045 ft 164 kts 303°
2026-04-30 20:13 -22.86876 -43.14545 801 ft 148 kts 264°
2026-04-30 20:13 -22.87181 -43.15550 636 ft 136 kts 231°
2026-04-30 20:13 -22.87862 -43.16207 492 ft 129 kts 205°
2026-04-30 20:13 -22.88712 -43.16430 346 ft 125 kts 180°
2026-04-30 20:14 -22.89563 -43.16375 202 ft 121 kts 176°
2026-04-30 20:14 -22.90391 -43.16321 56 ft 120 kts 179°
2026-04-30 20:14 -22.91142 -43.16275 26 ft 87 kts 178°
2026-04-30 20:14 -22.91371 -43.16261 26 ft 11 kts 168°
2026-04-30 20:15 -22.91460 -43.16247 24 ft 15 kts 174°
2026-04-30 20:15 -22.91530 -43.16314 23 ft 18 kts 270°
2026-04-30 20:15 -22.91501 -43.16404 28 ft 11 kts 316°
2026-04-30 20:15 -22.91444 -43.16462 29 ft 11 kts 317°
2026-04-30 20:16 -22.91379 -43.16502 30 ft 6 kts 351°
2026-04-30 20:16 -22.91353 -43.16532 30 ft 7 kts 262°
2026-04-30 20:16 -22.91355 -43.16561 30 ft 0 kts 266°
2026-04-30 20:16 -22.91356 -43.16571 30 ft 2 kts 267°
2026-04-30 20:17 -22.91356 -43.16574 30 ft 0 kts 267°